WIF4BN ENBR-ENAL

Flight info

Callsign WIF4BN
Flight time 0h 34m
Altitude 25000
Route OLDAS DCT TUMIM
Aircraft DH8B/M-SDFGR/S

Departure

Time 2026-04-20 18:46
Airport Bergen Airport, Flesland (ENBR)

Arrival

Time 2026-04-20 19:21
Airport Ålesund Airport (ENAL)
Time Latitude Longitude Altitude Speed Heading
2026-04-20 18:37 60.29083 5.22871 173 ft 0 kts 47°
2026-04-20 18:44 60.29085 5.22873 173 ft 2 kts 19°
2026-04-20 18:44 60.29083 5.22840 173 ft 7 kts 231°
2026-04-20 18:44 60.29052 5.22748 172 ft 10 kts 264°
2026-04-20 18:44 60.29045 5.22590 172 ft 13 kts 262°
2026-04-20 18:45 60.29028 5.22401 172 ft 14 kts 238°
2026-04-20 18:45 60.28937 5.22346 170 ft 16 kts 229°
2026-04-20 18:45 60.28918 5.22126 162 ft 20 kts 260°
2026-04-20 18:45 60.28915 5.21959 160 ft 6 kts 333°
2026-04-20 18:46 60.28936 5.21951 160 ft 22 kts 351°
2026-04-20 18:46 60.29517 5.21757 146 ft 131 kts 351°
2026-04-20 18:46 60.30561 5.21415 520 ft 163 kts 349°
2026-04-20 18:46 60.31711 5.21016 1185 ft 171 kts 351°
2026-04-20 18:47 60.32878 5.20621 1907 ft 174 kts 351°
2026-04-20 18:47 60.34089 5.20210 2645 ft 178 kts 351°
2026-04-20 18:47 60.35326 5.19794 3381 ft 182 kts 352°
2026-04-20 18:47 60.36588 5.19370 4121 ft 184 kts 352°
2026-04-20 18:48 60.37864 5.18933 4893 ft 187 kts 353°
2026-04-20 18:48 60.39150 5.18494 5654 ft 188 kts 353°
2026-04-20 18:48 60.40446 5.18055 6412 ft 190 kts 353°
2026-04-20 18:48 60.41759 5.17613 7163 ft 192 kts 353°
2026-04-20 18:49 60.42369 5.17403 7498 ft 194 kts 353°
2026-04-20 18:49 60.42929 5.17211 7807 ft 194 kts 353°
2026-04-20 18:49 60.44272 5.16761 8554 ft 196 kts 353°
2026-04-20 18:50 60.45623 5.16306 9317 ft 198 kts 353°
2026-04-20 18:50 60.46991 5.15839 10100 ft 200 kts 353°
2026-04-20 18:50 60.48390 5.15365 10681 ft 211 kts 352°
2026-04-20 18:50 60.49883 5.14931 11153 ft 221 kts
2026-04-20 18:51 60.51425 5.15097 11650 ft 227 kts
2026-04-20 18:51 60.53021 5.15380 12168 ft 233 kts
2026-04-20 18:51 60.54662 5.15495 12696 ft 238 kts
2026-04-20 18:51 60.56335 5.15497 13233 ft 242 kts
2026-04-20 18:52 60.58037 5.15515 13777 ft 246 kts
2026-04-20 18:52 60.59760 5.15573 14321 ft 249 kts
2026-04-20 18:52 60.61508 5.15644 14806 ft 252 kts
2026-04-20 18:52 60.63257 5.15708 15288 ft 255 kts
2026-04-20 18:53 60.65037 5.15770 15776 ft 257 kts
2026-04-20 18:53 60.66839 5.15839 16264 ft 260 kts
2026-04-20 18:53 60.68662 5.15907 16759 ft 263 kts
2026-04-20 18:53 60.70503 5.15974 17263 ft 265 kts
2026-04-20 18:54 60.72337 5.16040 17761 ft 267 kts
2026-04-20 18:54 60.74208 5.16106 18274 ft 269 kts
2026-04-20 18:54 60.76097 5.16173 18788 ft 272 kts
2026-04-20 18:54 60.77996 5.16241 19240 ft 274 kts
2026-04-20 18:55 60.79261 5.16287 19539 ft 275 kts
2026-04-20 18:55 60.81185 5.16356 19998 ft 277 kts
2026-04-20 18:55 60.83749 5.16440 20613 ft 279 kts
2026-04-20 18:55 60.85707 5.16505 21086 ft 281 kts 360°
2026-04-20 18:56 60.87010 5.16550 21403 ft 282 kts 360°
2026-04-20 18:56 60.88978 5.16620 21887 ft 283 kts 360°
2026-04-20 18:56 60.91606 5.16715 22534 ft 286 kts 360°
2026-04-20 18:56 60.92926 5.16762 22864 ft 287 kts 359°
2026-04-20 18:57 60.94937 5.16834 23365 ft 288 kts 359°
2026-04-20 18:57 60.96954 5.16902 23873 ft 290 kts 359°
2026-04-20 18:57 60.98990 5.16971 24333 ft 292 kts 359°
2026-04-20 18:57 61.01033 5.17044 24764 ft 294 kts 358°
2026-04-20 18:58 61.03067 5.17114 25196 ft 297 kts 359°
2026-04-20 18:58 61.05151 5.17187 25453 ft 305 kts 359°
2026-04-20 18:58 61.07323 5.17437 25498 ft 319 kts
2026-04-20 18:58 61.09424 5.19100 25510 ft 332 kts 30°
2026-04-20 18:59 61.11310 5.21934 25519 ft 336 kts 36°
2026-04-20 18:59 61.13245 5.24637 25513 ft 335 kts 27°
2026-04-20 18:59 61.15346 5.26721 25515 ft 334 kts 22°
2026-04-20 18:59 61.17442 5.28677 25505 ft 334 kts 24°
2026-04-20 19:00 61.19510 5.30904 25504 ft 335 kts 27°
2026-04-20 19:00 61.21536 5.33320 25503 ft 335 kts 29°
2026-04-20 19:00 61.23562 5.35750 25505 ft 337 kts 28°
2026-04-20 19:00 61.25588 5.38112 25503 ft 338 kts 27°
2026-04-20 19:01 61.27654 5.40437 25502 ft 338 kts 26°
2026-04-20 19:01 61.29726 5.42762 25499 ft 338 kts 27°
2026-04-20 19:01 61.31786 5.45126 25501 ft 337 kts 27°
2026-04-20 19:01 61.33837 5.47504 25505 ft 337 kts 27°
2026-04-20 19:02 61.35898 5.49880 25503 ft 338 kts 27°
2026-04-20 19:02 61.37959 5.52227 25503 ft 337 kts 27°
2026-04-20 19:02 61.39995 5.54561 25506 ft 337 kts 27°
2026-04-20 19:02 61.42047 5.56942 25507 ft 337 kts 27°
2026-04-20 19:03 61.44108 5.59328 25506 ft 337 kts 27°
2026-04-20 19:03 61.46169 5.61701 25509 ft 337 kts 27°
2026-04-20 19:03 61.48230 5.64077 25482 ft 335 kts 28°
2026-04-20 19:03 61.50240 5.66410 25487 ft 334 kts 28°
2026-04-20 19:04 61.52281 5.68783 25493 ft 334 kts 28°
2026-04-20 19:04 61.54320 5.71154 25492 ft 335 kts 28°
2026-04-20 19:04 61.56356 5.73522 25494 ft 334 kts 28°
2026-04-20 19:04 61.58393 5.75899 25495 ft 335 kts 28°
2026-04-20 19:05 61.60428 5.78280 25497 ft 334 kts 28°
2026-04-20 19:05 61.62440 5.80634 25497 ft 334 kts 28°
2026-04-20 19:05 61.64486 5.83029 25511 ft 335 kts 28°
2026-04-20 19:05 61.66499 5.85393 25508 ft 334 kts 28°
2026-04-20 19:06 61.68536 5.87789 25512 ft 335 kts 28°
2026-04-20 19:06 61.70572 5.90184 25511 ft 334 kts 28°
2026-04-20 19:06 61.72610 5.92588 25515 ft 334 kts 28°
2026-04-20 19:06 61.74702 5.94756 25515 ft 334 kts 23°
2026-04-20 19:07 61.76835 5.96718 25518 ft 334 kts 22°
2026-04-20 19:07 61.78942 5.98627 25519 ft 334 kts 22°
2026-04-20 19:07 61.81075 6.00694 25510 ft 338 kts 24°
2026-04-20 19:07 61.83198 6.02811 25510 ft 337 kts 24°
2026-04-20 19:08 61.85340 6.04862 25510 ft 337 kts 22°
2026-04-20 19:08 61.89628 6.08961 25504 ft 337 kts 24°
2026-04-20 19:08 61.91731 6.11036 25509 ft 337 kts 24°
2026-04-20 19:09 61.93899 6.13132 25511 ft 338 kts 23°
2026-04-20 19:09 61.96024 6.15166 25484 ft 333 kts 23°
2026-04-20 19:09 61.98134 6.17222 24997 ft 335 kts 24°
2026-04-20 19:09 62.00257 6.19315 24526 ft 335 kts 23°
2026-04-20 19:10 62.02338 6.21348 24067 ft 329 kts 23°
2026-04-20 19:10 62.04408 6.23355 23512 ft 323 kts 23°
2026-04-20 19:10 62.06437 6.25331 22943 ft 317 kts 23°
2026-04-20 19:10 62.08431 6.27288 22394 ft 313 kts 24°
2026-04-20 19:11 62.10405 6.29238 21837 ft 310 kts 24°
2026-04-20 19:11 62.12351 6.31161 21325 ft 307 kts 24°
2026-04-20 19:11 62.14266 6.33037 20804 ft 305 kts 23°
2026-04-20 19:11 62.16206 6.34916 20112 ft 311 kts 24°
2026-04-20 19:12 62.18202 6.36888 19399 ft 320 kts 24°
2026-04-20 19:12 62.20236 6.38920 18700 ft 323 kts 24°
2026-04-20 19:12 62.22253 6.40919 17925 ft 316 kts 24°
2026-04-20 19:12 62.24235 6.42866 17162 ft 310 kts 24°
2026-04-20 19:13 62.26180 6.44793 16405 ft 305 kts 24°
2026-04-20 19:13 62.28087 6.46699 15758 ft 298 kts 24°
2026-04-20 19:13 62.29963 6.48399 15253 ft 287 kts 14°
2026-04-20 19:13 62.31892 6.48626 14754 ft 279 kts 351°
2026-04-20 19:14 62.33767 6.47813 14246 ft 272 kts 349°
2026-04-20 19:14 62.35585 6.47394 13698 ft 267 kts 359°
2026-04-20 19:14 62.37428 6.47514 13157 ft 263 kts
2026-04-20 19:14 62.39234 6.47636 12620 ft 260 kts
2026-04-20 19:15 62.41043 6.47575 12073 ft 257 kts 357°
2026-04-20 19:15 62.42823 6.47390 11531 ft 255 kts 357°
2026-04-20 19:15 62.44597 6.47264 10782 ft 249 kts 358°
2026-04-20 19:15 62.46281 6.47204 10003 ft 236 kts 359°
2026-04-20 19:16 62.47891 6.47114 9173 ft 226 kts 358°
2026-04-20 19:16 62.49448 6.46999 8358 ft 220 kts 358°
2026-04-20 19:16 62.50952 6.46903 7578 ft 216 kts 359°
2026-04-20 19:16 62.52462 6.46821 6984 ft 223 kts 358°
2026-04-20 19:17 62.54033 6.46171 6466 ft 236 kts 342°
2026-04-20 19:17 62.55596 6.44932 5969 ft 242 kts 340°
2026-04-20 19:17 62.57173 6.43779 5482 ft 235 kts 343°
2026-04-20 19:17 62.58717 6.42821 4963 ft 227 kts 340°
2026-04-20 19:18 62.59983 6.40877 4430 ft 225 kts 308°
2026-04-20 19:18 62.60523 6.37857 4140 ft 217 kts 275°
2026-04-20 19:18 62.60326 6.34710 3980 ft 205 kts 257°
2026-04-20 19:18 62.59911 6.31733 3587 ft 208 kts 251°
2026-04-20 19:19 62.59390 6.28756 3078 ft 211 kts 249°
2026-04-20 19:19 62.58859 6.25962 2644 ft 191 kts 249°
2026-04-20 19:19 62.58380 6.23308 1900 ft 188 kts 250°
2026-04-20 19:19 62.57899 6.20714 1267 ft 180 kts 249°
2026-04-20 19:20 62.57466 6.18324 884 ft 160 kts 251°
2026-04-20 19:20 62.57093 6.16122 510 ft 147 kts 250°
2026-04-20 19:20 62.56714 6.14172 249 ft 133 kts 249°
2026-04-20 19:20 62.56356 6.12469 54 ft 89 kts 244°
2026-04-20 19:21 62.56167 6.12071 61 ft 27 kts 216°
2026-04-20 19:21 62.56085 6.11739 64 ft 24 kts 245°
2026-04-20 19:21 62.56001 6.11560 63 ft 12 kts 215°
2026-04-20 19:21 62.55962 6.11411 66 ft 11 kts 246°
2026-04-20 19:22 62.55914 6.11362 66 ft 8 kts 153°
2026-04-20 19:22 62.55895 6.11382 69 ft 0 kts 155°